SP9KB-13 Weather Reports


Display with metric or nautical units.
time (UTC)temp
F
wind
direction
speed
MPH
gust
MPH
rain 1hr
in
rain 24hr
in
rain mn
in
humidity
%
barometer
mb
20260506085849 68 212 3.0 4.0 0.00 0.00 0.00 51 991.2
20260506085349 69 259 3.0 3.0 0.00 0.00 0.00 50 991.1
20260506084849 69 194 5.0 9.0 0.00 0.00 0.00 51 991.3
20260506084348 68 122 3.0 4.0 0.00 0.00 0.00 51 991.1
20260506083847 68 202 2.0 3.0 0.00 0.00 0.00 50 991.1
20260506083347 68 245 6.0 9.0 0.00 0.00 0.00 50 990.9
20260506082846 68 226 2.0 3.0 0.00 0.00 0.00 50 990.9
20260506082346 66 257 2.0 3.0 0.00 0.00 0.00 52 990.9
20260506081845 68 246 3.0 8.0 0.00 0.00 0.00 49 990.8
20260506081344 68 147 0.0 1.0 0.00 0.00 0.00 49 990.8
20260506080844 68 217 3.0 5.0 0.00 0.00 0.00 49 991.1
20260506080343 69 137 2.0 2.0 0.00 0.00 0.00 48 990.9
20260506073340 68 229 4.0 6.0 0.00 0.00 0.00 48 991.0
20260506072839 67 223 1.0 1.0 0.00 0.00 0.00 48 990.9
20260506072339 67 178 4.0 7.0 0.00 0.00 0.00 46 990.9
20260506071838 67 223 2.0 3.0 0.00 0.00 0.00 48 991.2
20260506071338 67 153 1.0 2.0 0.00 0.00 0.00 48 991.0
20260506070837 65 217 2.0 3.0 0.00 0.00 0.00 49 991.1
20260506070336 64 211 1.0 2.0 0.00 0.00 0.00 51 991.2
20260506062332 62 224 3.0 4.0 0.00 0.00 0.00 55 990.8
20260506061831 61 222 5.0 5.0 0.00 0.00 0.00 54 990.9
20260506061331 61 194 2.0 2.0 0.00 0.00 0.00 54 990.8
20260506060830 61 231 3.0 4.0 0.00 0.00 0.00 54 990.8
20260506060330 61 196 5.0 8.0 0.00 0.00 0.00 53 990.9
20260506051325 59 212 5.0 6.0 0.00 0.00 0.00 53 990.9
20260506050824 59 202 2.0 4.0 0.00 0.00 0.00 54 990.7
20260506050323 59 235 4.0 6.0 0.00 0.00 0.00 55 990.7
20260506044822 58 227 4.0 5.0 0.00 0.00 0.00 55 990.6
20260506044321 58 234 3.0 4.0 0.00 0.00 0.00 54 990.6
20260506043821 59 236 7.0 10.0 0.00 0.00 0.00 53 990.6
20260506043320 59 223 2.0 4.0 0.00 0.00 0.00 53 990.7
20260506042820 60 152 0.0 1.0 0.00 0.00 0.00 55 990.6
20260506042319 59 212 3.0 4.0 0.00 0.00 0.00 53 990.6
20260506041819 58 208 1.0 2.0 0.00 0.00 0.00 55 990.6
20260506041318 57 217 1.0 2.0 0.00 0.00 0.00 57 990.7
20260506040817 56 243 4.0 5.0 0.00 0.00 0.00 58 990.7
20260506040317 56 229 2.0 2.0 0.00 0.00 0.00 57 990.6
20260506035816 55 226 3.0 3.0 0.00 0.00 0.00 59 990.5
20260506035316 54 224 2.0 2.0 0.00 0.00 0.00 60 990.7
20260506034815 53 228 0.0 0.0 0.00 0.00 0.00 64 990.6
20260506034315 50 215 0.0 0.0 0.00 0.00 0.00 69 990.6
20260506033814 50 215 0.0 0.0 0.00 0.00 0.00 72 990.7
20260506033314 49 215 0.0 0.0 0.00 0.00 0.00 73 990.7
20260506032813 49 214 1.0 1.0 0.00 0.00 0.00 73 990.8
20260506032313 51 214 0.0 0.0 0.00 0.00 0.00 70 990.7
20260506031812 51 214 0.0 0.0 0.00 0.00 0.00 66 990.9
20260506031311 51 227 1.0 1.0 0.00 0.00 0.00 70 990.8
20260506030811 52 229 0.0 1.0 0.00 0.00 0.00 65 990.9
20260506030310 51 224 1.0 1.0 0.00 0.00 0.00 69 990.8
20260506025810 51 119 0.0 0.0 0.00 0.00 0.00 64 990.8
20260506025309 52 251 0.0 0.0 0.00 0.00 0.00 65 991.0
20260506024809 53 125 2.0 2.0 0.00 0.00 0.00 63 990.7
20260506024308 53 251 0.0 1.0 0.00 0.00 0.00 62 990.9
20260506023808 53 289 2.0 2.0 0.00 0.00 0.00 63 990.8
20260506023307 54 214 0.0 0.0 0.00 0.00 0.00 62 990.8
20260506022807 55 214 0.0 0.0 0.00 0.00 0.00 57 990.8
20260506022306 56 239 0.0 0.0 0.00 0.00 0.00 55 990.6
20260506021805 56 174 1.0 2.0 0.00 0.00 0.00 54 990.7
20260506021305 57 227 3.0 6.0 0.00 0.00 0.00 53 990.6
20260506020804 57 234 1.0 3.0 0.00 0.00 0.00 53 990.7
20260506020304 56 232 2.0 4.0 0.00 0.00 0.00 53 990.7
20260506015803 57 244 4.0 5.0 0.00 0.00 0.00 52 990.7
20260506015305 57 236 2.0 4.0 0.00 0.00 0.00 52 990.7
20260506014802 57 231 3.0 6.0 0.00 0.00 0.00 52 990.7
20260506014302 57 195 3.0 3.0 0.00 0.00 0.00 52 990.7
20260506013801 57 221 2.0 3.0 0.00 0.00 0.00 51 990.7
20260506012800 57 219 4.0 5.0 0.00 0.00 0.00 51 991.0
20260506012300 57 214 2.0 3.0 0.00 0.00 0.00 52 990.9
20260506011759 57 214 2.0 2.0 0.00 0.00 0.00 52 990.8
20260506011259 57 205 3.0 3.0 0.00 0.00 0.00 51 990.8
20260506010758 54 239 2.0 3.0 0.00 0.00 0.00 55 990.8
20260506010258 54 224 0.0 0.0 0.00 0.00 0.00 60 990.8
20260506005757 54 220 0.0 0.0 0.00 0.00 0.00 59 990.8
20260506005257 54 220 0.0 1.0 0.00 0.00 0.00 58 990.8
20260506004756 55 220 0.0 1.0 0.00 0.00 0.00 57 990.7
20260506004256 56 219 0.0 0.0 0.00 0.00 0.00 56 990.6
20260506003755 57 219 1.0 1.0 0.00 0.00 0.00 53 990.6
20260506003255 58 227 1.0 1.0 0.00 0.00 0.00 49 990.7
20260506002754 57 221 2.0 3.0 0.00 0.00 0.00 50 990.7
20260506002253 58 225 0.0 0.0 0.00 0.00 0.00 51 990.7
20260506001753 58 233 2.0 3.0 0.00 0.00 0.00 49 990.5
20260506001253 58 247 2.0 3.0 0.00 0.00 0.00 51 990.5
20260506000752 57 207 2.0 3.0 0.00 0.00 0.00 53 990.4
20260506000252 56 235 1.0 1.0 0.00 0.00 0.00 54 990.5
20260505235751 56 238 1.0 1.0 0.00 0.00 0.00 55 990.5
20260505235251 56 224 1.0 2.0 0.00 0.00 0.00 55 990.5
20260505234750 56 257 2.0 2.0 0.00 0.00 0.00 53 990.6
20260505234250 55 229 1.0 2.0 0.00 0.00 0.00 56 990.6
20260505233749 54 234 1.0 2.0 0.00 0.00 0.00 58 990.6
20260505233249 52 233 1.0 1.0 0.00 0.00 0.00 63 990.7
20260505232748 51 229 1.0 1.0 0.00 0.00 0.00 65 990.7
20260505232248 50 229 0.0 1.0 0.00 0.00 0.00 69 990.7
20260505231747 51 228 0.0 0.0 0.00 0.00 0.00 70 990.8
20260505231246 50 228 1.0 1.0 0.00 0.00 0.00 67 991.0
20260505230746 49 228 1.0 1.0 0.00 0.00 0.00 71 990.9
20260505230246 49 228 1.0 1.0 0.00 0.00 0.00 73 990.9
20260505225745 49 228 1.0 2.0 0.00 0.00 0.00 73 990.9
20260505225244 49 228 2.0 2.0 0.00 0.00 0.00 73 991.0
20260505224744 48 228 2.0 2.0 0.00 0.00 0.00 74 991.2
20260505224243 48 227 2.0 2.0 0.00 0.00 0.00 74 991.1
20260505223743 48 230 2.0 3.0 0.00 0.00 0.00 75 991.1
20260505223242 47 227 1.0 2.0 0.00 0.00 0.00 76 991.1
20260505222742 46 227 2.0 2.0 0.00 0.00 0.00 80 991.2
20260505222241 46 227 1.0 2.0 0.00 0.00 0.00 80 991.2
20260505221741 46 227 0.0 0.0 0.00 0.00 0.00 80 991.2
20260505221240 46 227 0.0 0.0 0.00 0.00 0.00 80 991.3
20260505220740 45 227 0.0 0.0 0.00 0.00 0.00 81 991.1
20260505220239 45 227 0.0 0.0 0.00 0.00 0.00 81 991.4
20260505215739 45 227 0.0 0.0 0.00 0.00 0.00 81 991.3
20260505215238 46 227 0.0 0.0 0.00 0.00 0.00 81 991.6
20260505214738 46 227 0.0 0.0 0.00 0.00 0.00 81 991.5
20260505214237 46 227 1.0 1.0 0.00 0.00 0.00 81 991.6
20260505213737 46 227 0.0 0.0 0.00 0.00 0.00 80 991.6
20260505213236 46 227 0.0 0.0 0.00 0.00 0.00 79 991.6
20260505212735 46 227 1.0 1.0 0.00 0.00 0.00 80 991.6
20260505212235 46 227 0.0 0.0 0.00 0.00 0.00 80 991.6
20260505211734 46 226 0.0 0.0 0.00 0.00 0.00 80 991.7
20260505211234 47 226 0.0 0.0 0.00 0.00 0.00 80 991.7
20260505210733 47 226 0.0 0.0 0.00 0.00 0.00 80 991.7
20260505210233 47 226 0.0 0.0 0.00 0.00 0.00 79 991.7
20260505205732 48 226 0.0 0.0 0.00 0.00 0.00 77 991.7
20260505205231 48 226 1.0 1.0 0.00 0.00 0.00 75 991.8
20260505204731 48 226 0.0 0.0 0.00 0.00 0.00 77 991.7
20260505204230 50 226 0.0 0.0 0.00 0.00 0.00 73 991.6
20260505203730 50 233 2.0 2.0 0.00 0.00 0.00 70 991.7
20260505203229 50 228 1.0 2.0 0.00 0.00 0.00 71 991.7
20260505202729 51 232 3.0 3.0 0.00 0.00 0.00 70 991.6
20260505202228 51 235 2.0 2.0 0.00 0.00 0.00 68 991.6
20260505201727 51 225 1.0 2.0 0.00 0.00 0.00 68 991.6
20260505201227 52 229 2.0 2.0 0.00 0.00 0.00 67 991.6
20260505200726 52 230 1.0 2.0 0.00 0.00 0.00 66 991.8
20260505200225 53 233 2.0 2.0 0.00 0.00 0.00 67 991.5
20260505195725 53 232 2.0 2.0 0.00 0.00 0.00 67 991.7
20260505195224 53 233 1.0 1.0 0.00 0.00 0.00 64 991.5
20260505194724 54 224 2.0 2.0 0.00 0.00 0.00 65 991.6
20260505194223 53 225 1.0 1.0 0.00 0.00 0.00 65 991.5
20260505193723 54 231 2.0 2.0 0.00 0.00 0.00 63 991.6
20260505193222 54 229 1.0 1.0 0.00 0.00 0.00 63 991.5
20260505192722 55 228 1.0 2.0 0.00 0.00 0.00 64 991.6
20260505192221 55 219 1.0 2.0 0.00 0.00 0.00 60 991.7
20260505191721 55 228 0.0 0.0 0.00 0.00 0.00 63 991.4
20260505191220 56 228 1.0 2.0 0.00 0.00 0.00 60 991.4
20260505190720 56 233 1.0 2.0 0.00 0.00 0.00 60 991.5
20260505190219 56 225 1.0 1.0 0.00 0.00 0.00 59 991.5
20260505185719 57 228 1.0 1.0 0.00 0.00 0.00 58 991.4
20260505185218 58 218 1.0 1.0 0.00 0.00 0.00 58 991.4
20260505184718 58 218 1.0 1.0 0.00 0.00 0.00 54 991.5
20260505184217 60 226 0.0 1.0 0.00 0.00 0.00 53 991.1
20260505183716 61 226 1.0 2.0 0.00 0.00 0.00 49 991.4
20260505183216 61 219 0.0 0.0 0.00 0.00 0.00 49 991.3
20260505182715 62 218 0.0 1.0 0.00 0.00 0.00 46 991.3
20260505182215 62 218 0.0 1.0 0.00 0.00 0.00 44 991.3
20260505181714 62 217 0.0 0.0 0.00 0.00 0.00 43 991.1
20260505181214 63 217 0.0 1.0 0.00 0.00 0.00 46 991.2
20260505180713 65 205 1.0 1.0 0.00 0.00 0.00 39 991.0
20260505180213 66 217 0.0 0.0 0.00 0.00 0.00 39 991.1
20260505175712 66 228 1.0 2.0 0.00 0.00 0.00 39 991.1
20260505175215 67 225 0.0 0.0 0.00 0.00 0.00 37 991.1
20260505174711 67 209 0.0 0.0 0.00 0.00 0.00 42 990.8
20260505174210 67 223 0.0 0.0 0.00 0.00 0.00 38 991.0
20260505173708 68 222 0.0 0.0 0.00 0.00 0.00 37 991.2
20260505173207 69 240 1.0 1.0 0.00 0.00 0.00 36 991.1
20260505172707 69 212 1.0 1.0 0.00 0.00 0.00 35 991.1
20260505172206 69 199 0.0 0.0 0.00 0.00 0.00 37 991.0
20260505171705 69 225 1.0 1.0 0.00 0.00 0.00 36 991.0
20260505171205 70 228 0.0 1.0 0.00 0.00 0.00 34 991.2
20260505170704 71 187 1.0 1.0 0.00 0.00 0.00 34 991.1
20260505170203 71 217 0.0 1.0 0.00 0.00 0.00 33 991.1
20260505165703 71 228 3.0 4.0 0.00 0.00 0.00 32 991.0
20260505165202 71 226 3.0 3.0 0.00 0.00 0.00 32 991.0
20260505164702 72 204 1.0 2.0 0.00 0.00 0.00 33 990.9
20260505164201 72 230 3.0 4.0 0.00 0.00 0.00 31 991.1
20260505163701 72 212 2.0 3.0 0.00 0.00 0.00 32 990.9
20260505163200 72 230 4.0 5.0 0.00 0.00 0.00 31 991.2
20260505162659 72 235 1.0 2.0 0.00 0.00 0.00 32 991.2
20260505162159 73 201 1.0 2.0 0.00 0.00 0.00 31 991.1
20260505161658 73 214 2.0 2.0 0.00 0.00 0.00 31 991.2
20260505161158 73 213 1.0 2.0 0.00 0.00 0.00 31 991.2
20260505160657 73 219 2.0 4.0 0.00 0.00 0.00 29 991.2
20260505160157 74 225 2.0 3.0 0.00 0.00 0.00 29 991.4
20260505153151 73 218 1.0 3.0 0.00 0.00 0.00 30 991.2
20260505152650 73 159 0.0 0.0 0.00 0.00 0.00 28 991.4
20260505152150 73 219 2.0 3.0 0.00 0.00 0.00 29 991.4
20260505151649 73 243 6.0 9.0 0.00 0.00 0.00 28 991.4
20260505151149 73 172 1.0 1.0 0.00 0.00 0.00 28 991.7
20260505150648 74 95 1.0 2.0 0.00 0.00 0.00 28 991.5
20260505150147 74 102 2.0 3.0 0.00 0.00 0.00 28 991.7
20260505140641 78 225 5.0 6.0 0.00 0.00 0.00 23 992.1
20260505140140 79 242 2.0 3.0 0.00 0.00 0.00 24 991.9
20260505130133 79 219 6.0 8.0 0.00 0.00 0.00 24 992.2
20260505124631 79 215 5.0 6.0 0.00 0.00 0.00 23 992.3
20260505124130 79 239 3.0 5.0 0.00 0.00 0.00 25 992.4
20260505123630 77 230 4.0 4.0 0.00 0.00 0.00 26 992.4
20260505123129 78 214 1.0 1.0 0.00 0.00 0.00 26 992.4
20260505122629 78 83 1.0 2.0 0.00 0.00 0.00 26 992.6
20260505122128 79 188 3.0 5.0 0.00 0.00 0.00 25 992.7
20260505121627 79 42 2.0 5.0 0.00 0.00 0.00 28 992.6
20260505121127 78 109 2.0 5.0 0.00 0.00 0.00 28 992.6
20260505120626 77 223 6.0 8.0 0.00 0.00 0.00 28 992.7
20260505120126 77 258 2.0 2.0 0.00 0.00 0.00 30 992.7
20260505115625 78 188 12.0 17.0 0.00 0.00 0.00 30 992.7
20260505115124 77 223 3.0 5.0 0.00 0.00 0.00 31 992.7
20260505114624 77 109 2.0 7.0 0.00 0.00 0.00 32 992.7
20260505114123 77 228 2.0 4.0 0.00 0.00 0.00 32 993.0
20260505113623 76 206 6.0 9.0 0.00 0.00 0.00 32 992.9
20260505113122 76 181 3.0 6.0 0.00 0.00 0.00 32 993.0
20260505112622 75 269 2.0 4.0 0.00 0.00 0.00 33 992.9
20260505112121 76 249 4.0 7.0 0.00 0.00 0.00 35 992.8
20260505111620 75 229 1.0 3.0 0.00 0.00 0.00 33 993.0
20260505111120 76 118 2.0 2.0 0.00 0.00 0.00 36 993.2
20260505110619 76 187 3.0 5.0 0.00 0.00 0.00 33 993.3
20260505110119 74 215 2.0 2.0 0.00 0.00 0.00 34 993.5
20260505102114 73 243 3.0 5.0 0.00 0.00 0.00 34 993.8
20260505101613 72 271 2.0 4.0 0.00 0.00 0.00 36 993.7
20260505101113 73 122 1.0 2.0 0.00 0.00 0.00 35 994.1
20260505100612 73 136 4.0 7.0 0.00 0.00 0.00 34 994.1
20260505100112 73 199 4.0 6.0 0.00 0.00 0.00 35 994.1
20260505095611 73 160 5.0 6.0 0.00 0.00 0.00 34 994.0
20260505095111 72 231 12.0 17.0 0.00 0.00 0.00 36 993.9
20260505094610 72 232 3.0 5.0 0.00 0.00 0.00 35 994.3
20260505094110 71 237 8.0 9.0 0.00 0.00 0.00 35 994.2
20260505093609 71 238 5.0 7.0 0.00 0.00 0.00 36 994.2
20260505093108 71 132 3.0 3.0 0.00 0.00 0.00 38 994.3
20260505092608 71 214 4.0 5.0 0.00 0.00 0.00 37 994.2
20260505092107 70 208 2.0 4.0 0.00 0.00 0.00 39 994.2
20260505091606 70 217 5.0 9.0 0.00 0.00 0.00 38 994.3
20260505091106 71 222 3.0 4.0 0.00 0.00 0.00 38 994.3
20260505090605 71 252 5.0 8.0 0.00 0.00 0.00 38 994.3